STARLINK-2151 (48556 NORAD) Tracking and Keplerian Element Data

This shows tracking and keplerian element data for the satellite.

Feedback or suggestion? Click here.




ElementValue
Catalog48556
NameSTARLINK-2151
Epoch Orbit1127
Epoch Day210.88539728
Epoch Year2021
RAAN140.4984
Inclination53.054
Eccentricity0.0001548
Argument of Perigee88.5374
Mean Anonmoly271.5792
Mean Motion15.06406149
Decay Rate1.37E-05
L11 48556U 21041D 21210.88539728 .00001370 00000-0 11086-3 0 9992
L22 48556 53.0540 140.4984 0001548 88.5374 271.5792 15.06406149 11270

Live tracking and technical data element details for STARLINK-2151 (NORAD 48556). STARLINK-2151 can be tracked NOW for your location showing map with azimuth and elevation plus other details from your city location.

Track the satellite on the map from your city or location and see movement details for azimuth, elevation, latitude, longitude, range, height, and movement on the map or in text.







IsCatalogInMostPopularTable: catalog: 48556, numindb: 23
Update: records affected: 1



GetName: 48556 STARLINK-2151

Hit Count: updated at: Sat, 31 Jul 2021 16:36:49 GMT